Skip Page Navigation
NASA JPL Caltech
NASA Logo - Jet Propulsion Laboratory + View the NASA Portal
+ Center for Near-Earth Object Studies
JPL Home Earth Solar System Stars & Galaxies Technology
JPL Solar System Dynamics
BODIES ORBITS EPHEMERIDES TOOLS PHYSICAL DATA DISCOVERY FAQ SITE MAP
JPL Small-Body Database Browser
Search: [ help ]  
134920 (2000 YU92)
Classification: Main-belt Asteroid          SPK-ID: 2134920
Ephemeris | Orbit Diagram | Orbital Elements | Mission Design | Physical Parameters | Discovery Circumstances ]

[ show orbit diagram ]
Orbital Elements at Epoch 2459200.5 (2020-Dec-17.0) TDB
Reference: JPL 25 (heliocentric ecliptic J2000)
 Element Value Uncertainty (1-sigma)   Units 
e .06497101233869877 2.9293e-08  
a 2.298341887859176 9.0326e-09 au
q 2.14901628870453 6.9006e-08 au
i 6.360526415010949 3.6174e-06 deg
node 296.6206579239528 3.6099e-05 deg
peri 157.5731512614458 5.1087e-05 deg
M 276.2562085381693 3.6721e-05 deg
tp 2459496.553700562444
(2021-Oct-09.05370056)
0.00013049 TDB
period 1272.683387532762
3.48
7.5026e-06
2.054e-08
d
yr
n .2828668964540346 1.6675e-09 deg/d
Q 2.447667487013823 9.6195e-09 au
  Orbit Determination Parameters
   # obs. used (total)      765  
   data-arc span      7291 days (19.96 yr)  
   first obs. used      2000-12-20  
   last obs. used      2020-12-06  
   planetary ephem.      DE441  
   SB-pert. ephem.      SB441-N16  
   condition code      0  
   norm. resid. RMS      .53896  
   source      ORB  
   producer      Otto Matic  
   solution date      2021-Apr-13 18:10:42  

Additional Information
 Earth MOID = 1.16705 au 
 Jupiter MOID = 2.65212 au 
 T_jup = 3.582 
[ show covariance matrix ]

Ephemeris | Orbit Diagram | Orbital Elements | Mission Design | Physical Parameters | Discovery Circumstances ]

Physical Parameter Table
Parameter Symbol Value Units Sigma Reference Notes
absolute magnitude H 16.36   n/a E2021B55  

134920 (2000 YU92)          Discovered 2000-Dec-30 by LINEAR at Socorro
Reference: 20060907/Numbers.arcLast Updated: 2006-09-10
Ephemeris | Orbit Diagram | Orbital Elements | Mission Design | Physical Parameters | Discovery Circumstances ]
ABOUT SSD CREDITS/AWARDS PRIVACY/COPYRIGHT GLOSSARY LINKS
FirstGov 2021-Apr-14 12:32 UT
(server date/time)  
NASA Home Page
Site Manager:   Ryan S. Park
Webmaster  Alan B. Chamberlin